Location: Hilton Head Island
(32.2163°N, 80.7526°W)
Time: 22:05:06
(UTC-04:00)

Transit 2A Rocket - Pass Details

Date: 14 February 2026
Orbit: 583 x 900 km, 66.7° (Epoch: 12 March)

Event Time Altitude Azimuth Distance (km) Brightness Sun altitude
Rises 03:50:55 0° 315° (NW) 3,258 - -41.8°
Reaches altitude 10° 03:54:07 10° 297° (WNW) 2,260 - -41.1°
Maximum altitude 03:57:29 18° 256° (WSW) 1,717 - -40.4°
Drops below altitude 10° 04:00:40 10° 214° (SW) 2,113 - -39.8°
Sets 04:03:32 0° 195° (SSW) 2,963 - -39.2°
